Powrót do katalogu

THORAD AGENA D DEB

AktywnyLEO
NORAD 4149·DEBRIS·🇺🇸 United States

Wystrzelony Sep 30, 1969 z Vandenberg Space Force Base

Loading…

Następne Przeloty (najbliższe 24 godziny)

TLE

ŚwieżeSource: Space-Track

Epoka: Sep 14, 2026, 14:03 UTC

1 04149U 69082T   26257.58565697  .00000145  00000-0  92975-4 0  9992
2 04149  70.3032 104.6848 0038320 294.4117  65.3007 14.19955974931255

Śledź THORAD AGENA D DEB w czasie rzeczywistym z AllMySat

Download on the App Store